Wind_Speed
38 35 33 29 26 27 25 26 24 21 18 16 12 13 15 15 13 13 13 13 12 11 11 10 10 9 8 7 6 5 4 3 3 3 2 1 1 1 1 2 1 2 2
38 35 35 30 30 30 27 22 22 22 21 20 17 14 15 17 16 15 15 15 14 14 13 13 12 12 11 10 9 7 6 5 4 4 3 3 3 5 3 3 4 5 4
39 37 36 31 30 34 35 28 25 24 26 24 21 18 16 16 18 18 18 17 17 16 15 15 15 15 15 14 13 12 10 8 7 7 7 6 7 7 7 6 6 7 7
42 43 42 36 35 36 34 32 31 27 32 27 24 22 20 19 18 20 21 20 19 18 18 17 17 17 18 17 17 15 14 11 10 10 9 9 8 9 9 11 10 9 9
46 47 45 44 45 37 39 32 28 27 26 24 26 26 24 22 21 21 22 22 22 21 20 20 20 20 19 19 20 19 17 15 14 13 12 12 11 11 11 11 12 11 11
49 54 47 46 40 38 39 34 30 36 31 31 30 32 29 27 25 23 22 23 23 22 21 22 22 22 21 21 21 21 20 19 18 16 15 15 14 13 13 14 14 14 13
52 52 51 49 46 40 40 39 40 37 38 39 34 32 31 32 28 26 25 23 23 23 23 25 25 24 24 24 24 23 22 22 22 20 19 19 18 17 16 16 16 16 17
53 56 57 55 46 46 43 45 42 42 42 42 40 41 37 33 31 30 27 24 24 25 25 26 27 26 26 26 27 26 24 24 24 23 23 23 22 20 18 18 18 19 20
54 54 57 56 53 50 51 49 48 48 46 49 44 41 33 29 33 34 30 27 26 27 28 28 28 29 28 28 28 26 26 27 26 25 25 25 25 23 21 21 21 21 21
49 55 55 56 55 55 54 55 53 53 55 53 54 45 36 34 35 37 34 31 31 30 30 29 30 30 29 27 26 25 25 25 25 24 25 25 26 25 23 23 24 24 23
54 55 55 56 54 56 59 60 57 58 61 62 58 49 43 39 40 37 40 37 36 33 33 32 32 32 32 30 26 25 25 24 23 23 25 25 26 26 26 24 25 26 25
55 58 54 51 50 53 58 59 61 60 57 60 54 53 49 44 39 37 41 43 38 37 37 36 34 34 33 31 29 26 27 24 24 24 25 25 27 27 26 26 26 27 28
52 57 52 49 48 49 52 56 63 66 61 59 52 54 50 43 44 41 43 45 41 41 40 37 36 35 35 33 30 27 28 27 24 25 25 26 28 28 28 28 28 28 30
53 51 51 50 51 52 52 53 61 59 58 60 51 43 41 39 46 47 42 43 42 44 41 37 37 35 35 34 33 33 32 30 27 27 28 29 29 29 29 30 30 31 33
54 54 54 52 51 51 51 49 47 52 54 52 48 43 42 38 44 48 44 46 47 48 45 44 43 42 40 39 37 37 36 33 32 30 31 31 30 31 32 33 34 35 36
55 57 56 54 50 49 49 48 47 46 49 52 49 46 43 42 38 45 45 45 51 49 52 51 47 48 46 43 42 42 39 37 36 33 33 34 34 34 34 35 37 38 39
58 57 56 55 50 47 48 46 42 43 46 48 50 51 47 46 44 39 39 41 48 50 45 46 54 54 49 47 46 46 43 41 40 38 37 37 38 38 38 38 40 41 42
54 55 54 56 52 49 48 48 45 42 44 47 48 52 51 51 49 44 42 39 39 41 45 41 44 48 55 53 52 50 47 45 44 42 43 43 43 41 41 43 43 43 44
56 56 54 54 54 49 47 46 48 49 43 45 48 50 51 53 53 49 48 46 45 45 43 44 44 45 43 42 47 57 55 50 47 48 47 50 48 46 47 45 44 42 43
55 57 50 51 52 50 52 49 49 49 49 48 49 48 51 54 56 54 56 52 52 52 51 51 50 48 49 51 46 48 53 49 52 54 51 52 51 50 49 45 46 44 45
55 59 57 56 52 51 51 48 48 48 49 50 50 50 50 53 55 56 60 59 57 57 56 56 58 56 53 58 56 57 60 57 52 53 55 53 53 55 53 49 50 49 50
59 62 57 55 52 50 49 47 48 51 58 53 53 54 51 54 57 59 63 62 57 57 59 57 57 53 46 52 58 63 66 64 61 57 61 51 56 62 59 55 55 53 49
70 65 65 59 55 59 54 52 57 60 53 60 54 55 58 60 56 57 63 56 50 66 69 50 48 52 63 44 51 55 65 57 59 65 47 45 48 54 65 64 61 56 62
74 82 68 65 62 61 56 58 62 62 63 52 47 43 40 52 61 57 57 58 68 65 62 48 28 29 29 32 43 48 43 28 29 28 42 45 36 37 39 40 44 48 45
67 60 63 67 66 59 61 62 58 63 56 50 49 46 51 40 45 53 55 48 43 37 34 27 30 35 32 32 22 27 35 39 39 38 43 41 38 36 39 32 39 37 42
77 65 71 51 63 54 59 61 68 65 63 61 59 63 52 54 37 48 37 42 41 34 35 35 35 39 39 37 36 40 39 42 39 41 42 39 37 34 38 42 41 41 40
Wind_Direction
213 207 215 214 215 219 216 209 201 199 204 201 199 200 198 193 196 205 213 216 215 216 225 226 225 225 220 218 208 196 189 173 162 150 146 102 66 15 27 14 321 295 295
212 203 217 208 218 224 214 225 207 208 212 207 203 206 206 206 205 205 214 220 224 224 228 233 237 235 234 233 231 229 231 229 230 227 246 265 290 292 296 294 281 272 275
206 202 214 208 217 231 210 211 212 218 219 214 210 207 211 216 216 214 218 224 226 228 232 233 233 237 240 238 239 238 241 246 249 259 261 268 276 280 273 253 255 261 268
204 206 210 211 212 230 235 210 213 221 222 214 214 214 215 220 222 224 224 226 229 232 234 238 240 239 237 240 242 243 246 248 253 255 266 271 274 274 273 265 254 252 257
209 212 214 212 209 215 232 219 222 227 225 235 226 221 220 223 228 229 231 231 232 234 236 239 240 242 242 239 243 247 250 254 257 260 265 268 269 272 270 268 265 262 261
216 214 218 220 217 209 229 235 235 222 234 242 241 237 227 226 227 232 233 234 236 237 239 242 244 245 244 242 243 246 251 257 263 264 266 270 271 268 267 263 261 262 265
218 220 217 222 224 215 223 230 236 240 247 234 245 237 240 236 234 232 234 237 240 239 238 242 243 245 247 248 245 246 250 255 260 263 266 266 265 264 264 261 259 260 263
218 219 221 219 221 226 223 229 233 237 246 241 252 238 236 239 237 236 235 235 237 241 242 243 244 245 245 246 247 248 249 250 253 257 261 264 264 263 260 262 260 259 262
221 221 225 222 221 221 228 231 234 238 238 248 249 254 232 243 236 235 235 234 235 239 242 243 244 247 246 246 247 250 251 252 252 253 257 261 264 263 264 261 259 258 260
221 222 225 229 224 225 227 231 233 237 242 243 247 240 238 238 231 234 229 233 236 238 240 243 245 247 248 250 250 251 252 254 257 258 258 259 262 263 263 263 262 262 264
221 224 224 229 230 230 228 231 235 237 240 242 246 247 238 238 228 233 229 225 232 236 239 244 245 247 249 251 253 259 261 259 261 262 264 266 268 268 265 261 261 263 266
233 225 224 227 230 234 235 234 237 240 244 248 247 239 236 241 233 232 230 226 228 233 239 242 245 248 251 255 258 257 262 262 262 262 264 266 265 265 268 268 264 264 265
232 223 226 228 233 237 239 239 241 242 241 245 250 245 232 232 224 228 222 226 229 233 238 241 245 248 252 256 260 259 257 260 259 260 261 263 264 265 267 267 265 267 269
221 222 226 228 233 239 243 244 245 244 244 247 251 229 227 229 225 225 229 236 231 240 244 249 250 254 255 255 254 255 256 260 259 259 259 259 260 263 265 267 267 267 270
215 223 225 227 230 234 238 245 239 242 246 249 241 236 235 229 227 228 227 231 239 239 246 247 252 254 255 254 253 253 254 256 259 260 261 261 263 263 263 263 265 268 271
217 221 224 227 228 233 237 242 240 238 240 245 242 240 236 233 231 227 227 233 233 239 245 246 250 254 258 258 256 255 256 257 259 260 261 261 262 263 264 267 269 270 271
219 223 222 226 225 228 234 238 246 241 241 241 240 241 239 235 234 231 229 232 234 238 240 245 251 251 254 259 258 258 258 259 260 260 261 261 261 263 265 265 265 268 272
226 225 223 224 225 227 230 236 240 248 244 241 239 240 244 243 241 239 236 235 238 242 246 251 262 254 253 257 261 261 263 264 262 263 261 260 262 264 264 265 268 270 272
228 227 228 227 227 228 232 235 240 242 242 241 240 242 244 246 245 244 246 244 245 246 247 250 255 259 262 254 261 265 262 262 262 264 265 267 267 265 263 265 265 269 272
227 230 230 228 236 233 232 232 237 240 241 241 240 241 243 245 246 244 247 246 246 244 245 247 250 252 255 261 258 260 263 262 263 264 265 265 268 267 266 268 269 273 274
227 226 227 229 232 236 234 234 236 240 245 245 244 245 245 247 247 246 247 248 246 247 248 250 252 252 262 264 264 264 262 263 263 266 266 265 265 267 267 265 269 268 272
223 225 225 228 234 239 234 236 242 242 237 235 249 244 245 254 250 244 239 247 247 249 254 251 247 262 267 265 267 261 260 260 264 266 269 270 269 264 263 265 266 269 269
227 225 229 227 232 236 233 233 237 240 244 243 243 239 244 242 230 252 238 250 233 250 255 253 261 263 261 267 254 260 262 265 269 262 253 270 277 280 262 263 265 266 273
229 230 226 215 230 236 238 237 241 241 243 236 246 240 248 248 243 249 234 239 248 246 240 245 253 246 255 268 250 244 255 245 253 254 251 261 282 276 257 264 266 266 258
247 236 233 229 233 238 235 241 245 245 249 251 252 260 257 254 252 233 238 238 237 235 236 238 239 251 252 258 251 247 248 251 257 255 258 268 269 259 262 260 262 269 266
235 240 228 228 231 236 241 245 241 250 246 249 249 254 258 254 259 229 245 230 239 237 245 244 244 248 251 250 249 245 244 247 253 258 262 268 266 256 254 260 265 267 271
Height
5815 5820 5824 5829 5834 5836 5838 5839 5842 5844 5847 5850 5852 5854 5857 5859 5861 5864 5866 5868 5870 5872 5874 5876 5878 5879 5881 5882 5884 5885 5887 5888 5889 5890 5891 5892 5892 5892 5892 5892 5891 5892 5891
5810 5815 5818 5824 5829 5831 5833 5836 5839 5842 5844 5846 5849 5852 5855 5857 5859 5862 5864 5866 5869 5871 5873 5875 5877 5878 5880 5881 5883 5885 5886 5888 5889 5890 5890 5891 5892 5892 5891 5891 5891 5891 5891
5805 5809 5812 5818 5823 5825 5826 5830 5834 5837 5840 5843 5846 5849 5851 5854 5856 5859 5861 5864 5866 5868 5871 5872 5874 5876 5878 5880 5882 5883 5885 5887 5888 5889 5890 5890 5891 5891 5891 5890 5890 5890 5891
5799 5802 5804 5811 5816 5819 5822 5823 5829 5833 5835 5838 5842 5845 5847 5850 5853 5855 5858 5860 5863 5866 5868 5870 5872 5874 5876 5878 5880 5881 5883 5885 5886 5887 5888 5889 5889 5890 5890 5890 5889 5889 5889
5792 5796 5797 5801 5806 5811 5815 5819 5824 5827 5832 5835 5838 5840 5843 5846 5849 5851 5854 5857 5859 5862 5864 5866 5868 5870 5873 5875 5877 5879 5881 5882 5884 5885 5886 5887 5887 5888 5888 5888 5889 5889 5888
5785 5787 5792 5794 5800 5803 5809 5814 5817 5821 5825 5829 5832 5836 5838 5841 5844 5847 5850 5853 5855 5858 5860 5862 5865 5866 5869 5872 5874 5876 5877 5879 5881 5882 5883 5884 5884 5885 5886 5886 5887 5887 5887
5775 5781 5784 5790 5795 5798 5804 5809 5812 5815 5817 5822 5825 5831 5834 5836 5840 5843 5846 5849 5851 5854 5856 5858 5860 5863 5865 5867 5870 5872 5874 5876 5877 5878 5879 5880 5881 5882 5883 5884 5884 5885 5885
5765 5773 5776 5783 5790 5794 5795 5802 5807 5810 5812 5815 5820 5823 5828 5831 5835 5838 5841 5844 5847 5849 5851 5853 5855 5858 5861 5863 5865 5868 5870 5872 5873 5874 5875 5876 5878 5878 5879 5880 5881 5882 5882
5755 5762 5768 5775 5783 5787 5790 5796 5800 5803 5807 5809 5811 5817 5820 5827 5829 5832 5836 5839 5842 5844 5846 5848 5850 5853 5855 5858 5860 5863 5865 5867 5868 5870 5871 5872 5873 5874 5875 5876 5876 5876 5878
5747 5753 5759 5764 5774 5779 5784 5787 5793 5796 5795 5800 5804 5809 5814 5818 5821 5824 5830 5834 5835 5838 5840 5843 5845 5847 5850 5853 5856 5858 5860 5862 5864 5865 5866 5867 5868 5869 5870 5872 5872 5872 5873
5737 5741 5747 5754 5763 5769 5775 5778 5783 5786 5787 5793 5796 5799 5806 5809 5812 5815 5821 5826 5828 5832 5834 5837 5839 5841 5844 5847 5851 5854 5855 5857 5859 5861 5862 5863 5864 5864 5865 5865 5866 5867 5868
5727 5732 5737 5745 5752 5759 5765 5770 5773 5775 5777 5783 5787 5791 5796 5802 5808 5808 5812 5816 5821 5824 5826 5829 5832 5835 5838 5841 5844 5848 5849 5851 5853 5855 5856 5857 5858 5858 5859 5860 5862 5862 5862
5715 5724 5729 5736 5742 5748 5754 5759 5760 5764 5770 5773 5776 5782 5787 5792 5796 5799 5801 5806 5811 5814 5818 5822 5825 5828 5831 5835 5838 5840 5842 5844 5847 5848 5850 5851 5852 5853 5854 5855 5856 5857 5857
5704 5714 5721 5728 5734 5737 5741 5746 5749 5754 5757 5763 5767 5770 5778 5782 5786 5790 5796 5799 5805 5806 5811 5817 5818 5822 5824 5828 5830 5831 5834 5837 5841 5842 5843 5844 5845 5847 5848 5848 5849 5850 5850
5691 5702 5709 5716 5723 5727 5730 5735 5738 5743 5748 5753 5760 5765 5770 5774 5778 5782 5787 5791 5797 5800 5804 5809 5811 5814 5816 5818 5821 5824 5826 5830 5832 5835 5836 5837 5839 5840 5841 5842 5843 5843 5844
5680 5689 5697 5704 5711 5717 5720 5723 5727 5733 5737 5743 5751 5756 5763 5767 5770 5773 5777 5782 5786 5792 5796 5801 5805 5805 5807 5809 5812 5815 5818 5821 5824 5826 5828 5830 5831 5832 5833 5835 5835 5835 5836
5665 5675 5683 5692 5698 5705 5710 5714 5719 5723 5728 5734 5740 5747 5754 5758 5761 5766 5769 5773 5779 5782 5788 5792 5792 5794 5799 5800 5802 5805 5809 5812 5814 5817 5819 5821 5822 5823 5825 5825 5825 5826 5827
5660 5666 5671 5678 5684 5691 5698 5703 5709 5713 5718 5724 5729 5734 5741 5745 5752 5756 5760 5764 5770 5774 5778 5783 5780 5782 5791 5792 5791 5794 5799 5802 5805 5808 5808 5810 5812 5814 5815 5815 5816 5817 5817
5646 5653 5659 5667 5672 5680 5686 5691 5698 5704 5709 5713 5718 5724 5730 5733 5739 5745 5748 5754 5759 5764 5768 5770 5774 5773 5776 5782 5784 5782 5787 5790 5794 5796 5798 5798 5801 5802 5802 5805 5806 5806 5807
5634 5642 5646 5656 5662 5668 5674 5679 5685 5691 5698 5704 5708 5712 5718 5721 5726 5733 5736 5742 5748 5750 5755 5758 5760 5763 5765 5766 5774 5775 5775 5780 5783 5784 5788 5788 5788 5791 5792 5794 5795 5797 5796
5625 5632 5637 5644 5652 5659 5664 5669 5674 5679 5685 5692 5696 5701 5706 5710 5716 5721 5726 5729 5734 5738 5742 5745 5747 5751 5754 5756 5761 5765 5762 5766 5770 5773 5775 5778 5777 5777 5780 5781 5783 5785 5784
5611 5616 5623 5632 5641 5647 5653 5660 5666 5670 5669 5673 5683 5688 5693 5696 5701 5709 5707 5716 5720 5723 5727 5731 5734 5738 5741 5742 5744 5748 5751 5751 5755 5761 5760 5763 5762 5763 5765 5768 5769 5770 5772
5601 5605 5609 5619 5629 5635 5642 5648 5649 5656 5658 5664 5669 5668 5674 5676 5679 5690 5698 5704 5696 5709 5713 5718 5720 5723 5727 5727 5730 5731 5736 5740 5742 5745 5745 5748 5747 5748 5749 5753 5755 5756 5758
5590 5593 5592 5603 5614 5611 5628 5634 5636 5643 5648 5648 5649 5657 5663 5666 5673 5678 5681 5689 5694 5696 5701 5702 5708 5711 5713 5712 5714 5719 5725 5725 5729 5730 5734 5738 5737 5733 5733 5739 5742 5745 5747
5574 5573 5584 5595 5602 5608 5615 5622 5624 5628 5635 5634 5644 5646 5654 5658 5659 5663 5671 5675 5679 5681 5687 5691 5698 5703 5703 5706 5704 5708 5712 5716 5719 5723 5724 5725 5728 5726 5725 5727 5731 5733 5734
5561 5566 5575 5581 5585 5592 5600 5608 5611 5618 5622 5629 5635 5638 5643 5647 5650 5652 5658 5664 5669 5673 5678 5681 5687 5692 5695 5696 5697 5701 5702 5705 5708 5710 5714 5714 5715 5715 5715 5717 5718 5719 5719